Regional Weather Roundup
Issued by NWS State College, PA

Home | Current Version | Previous Version | Text Only | Print | Product List | Glossary Off
Versions: 1 2 3 4 5 6 7 8 9 10 11 12 13 14 15 16 17 18 19 20 21 22 23 24 25 26 27 28 29 30 31 32 33 34 35 36 37 38 39 40 41 42 43 44 45 46 47 48 49 50

000
ASUS41 KCTP 291503
RWRCTP

REGIONAL WEATHER ROUNDUP
NATIONAL WEATHER SERVICE STATE COLLEGE PA
1100 AM EDT SUN MAY 29 2016

Note: "fair" indicates few or no clouds below 12,000 feet with no
significant weather and/or obstructions to visibility.

* = STATION THAT DOES NOT REPORT PRECIPITATION /E.G. RAIN...SNOW...ETC/
    THUNDER OR FOG.

PAZ002>004-007>009-013>016-020>023-029>032-291600-
WESTERN PENNSYLVANIA

CITY           SKY/WX    TMP DP  RH WIND       PRES   REMARKS
ERIE           CLOUDY    82  67  60 S8        30.08F
MEADVILLE      CLOUDY    75  66  73 SW3       30.13F
FRANKLIN*      CLOUDY    75  64  69 SW3       30.16F
NEW CASTLE     FAIR      78  67  68 CALM      30.13F
BEAVER COUNTY  NOT AVBL
BUTLER*        CLOUDY    77  66  69 CALM      30.16S
PITTSBURGH INT CLOUDY    81  65  58 VRB3      30.12F
PITTSBURGH     CLOUDY    80  66  62 CALM      30.12F
INDIANA*       SUNNY     77  70  78 VRB3      30.17F
LATROBE        MOSUNNY   79  72  78 W7        30.13F
WASHINGTON CO* CLOUDY    81  66  61 CALM      30.13F
$$

PAZ004>006-010>012-017>019-024>028-033>037-041-042-045-046-049>053-291600-
CENTRAL PENNSYLVANIA

CITY           SKY/WX    TMP DP  RH WIND       PRES   REMARKS
BRADFORD       MOSUNNY   77  64  64 S5        30.17S
DUBOIS         CLOUDY    77  66  68 CALM      30.15F
CLEARFIELD     CLOUDY    80  66  62 W5        30.14F
JOHNSTOWN      MOSUNNY   76  62  62 CALM      30.17F
ALTOONA        SUNNY     80  60  50 SE14      30.16S
STATE COLLEGE  SUNNY     81  64  57 S7        30.14F
WILLIAMSPORT   SUNNY     84  66  54 VRB3      30.10F
SELINSGROVE    SUNNY     82  65  56 SE8       30.12F
FT INDIANTOWN  SUNNY     78  65  62 VRB3      30.14S
CAPITAL CITY   MOSUNNY   80  65  59 SE5       30.13F
HARRISBURG     PTSUNNY   80  64  58 VRB3      30.13S
YORK           MOSUNNY   80  66  62 SE3       30.14S
$$

PAZ038>040-043-044-047-048-054-055-060>062-067>071-291600-
EASTERN PENNSYLVANIA

CITY           SKY/WX    TMP DP  RH WIND       PRES   REMARKS
SCRANTON       SUNNY     83  66  56 VRB5      30.13F
MOUNT POCONO   PTSUNNY   78  66  66 SE6       30.18F
ALLENTOWN      SUNNY     83  62  49 S3        30.14S
QUAKERTOWN*    SUNNY     81  64  57 CALM      30.16S
READING        SUNNY     82  63  52 VRB5      30.13S
LANCASTER      SUNNY     80  63  55 E5        30.14F
COATESVILLE    SUNNY     79  63  57 VRB6      30.17F
POTTSTOWN      SUNNY     80  64  58 VRB3      30.16S
BLUE BELL      SUNNY     79  64  61 S5        30.14S
DOYLESTOWN     MOSUNNY   78  60  53 VRB6      30.14F
WILLOW GROVE   NOT AVBL
NORTH PHILA    MOSUNNY   81  64  56 VRB7      30.16S
PHILADELPHIA   MOSUNNY   79  61  53 SW8       30.15F
$$




USA.gov is the U.S. government's official web portal to all federal, state and local government web resources and services.